Flag for Germany Weather past 2 weeks in Freital, Saxony, Germany

40 °F

Light rain. Overcast.

Feels Like: 33 °F
Forecast: 41 / 48 °F
Wind: 12 mph from Southwest

Location: Dresden-Klotzsche

Current Time: Nov 29, 2015 at 10:48:41 AM

Latest Report: Nov 29, 2015 at 10:00 AM

Visibility: 16 mi

Pressure: 29.88 "Hg

Humidity: 83%

Dew point: 35 °F

Location of FreitalLocation

Historic Weather in Freital — Graph


Freital temperature yesterday

Maximum temperature yesterday: 38 °F (at 6:00 PM)
Minimum temperature yesterday: 26 °F (at 4:00 AM)
Average temperature yesterday: 33 °F

Past Weeks' High & Low Weather Summary

High60 °F (Nov 18, 3:00 AM)97% (Nov 22, 7:00 PM)30.29 "Hg (Nov 22, 7:00 PM)
Low26 °F (Nov 28, 4:00 AM)58% (Nov 18, 12:00 PM)29.38 "Hg (Nov 21, 12:00 PM)
Average42 °F83%29.86 "Hg
* Reported Nov 14 9:00 AM — Nov 29 9:00 AM, Freital, Weather by CustomWeather, © 2015

Note: Actual official high and low records may vary slightly from our data, if they occured in-between our weather recording intervals... More about our weather records


Freital weather history for previous 24 hours

Time TempWeatherWind HumidityBarometerVisibility
9:00 AM
Sun, Nov 29
39 °FLight rain. Overcast.10 mph84%29.88 "Hg16 mi
7:00 AM40 °FLight rain. Overcast.12 mph81%29.88 "Hg22 mi
5:00 AM39 °FOvercast.8 mph75%29.90 "Hg28 mi
4:00 AM37 °FPassing clouds.9 mph77%29.91 "Hg28 mi
3:00 AM37 °FPassing clouds.9 mph78%29.95 "Hg28 mi
2:00 AM37 °FOvercast.9 mph78%29.98 "Hg25 mi
9:00 PM
Sat, Nov 28
36 °FPassing clouds.7 mph84%30.01 "Hg22 mi
8:00 PM36 °FPassing clouds.8 mph88%29.99 "Hg22 mi
7:00 PM38 °FPassing clouds.8 mph88%29.97 "Hg22 mi
6:00 PM38 °FOvercast.9 mph90%29.94 "Hg19 mi
5:00 PM36 °FLight rain. Low clouds.8 mph95%29.92 "Hg8 mi
4:00 PM35 °FLight rain. Low clouds.8 mph97%29.89 "Hg5 mi
3:00 PM35 °FLight rain. Low clouds.7 mph97%29.84 "Hg4 mi
2:00 PM34 °FSnow. Low clouds.8 mph95%29.83 "Hg1 mi
1:00 PM35 °FLight snow. Low clouds.8 mph92%29.81 "Hg3 mi
12:00 PM35 °FLight snow. Overcast.7 mph88%29.80 "Hg4 mi
11:00 AM33 °FOvercast.5 mph79%29.80 "Hg17 mi
10:00 AM32 °FPartly sunny.5 mph78%29.80 "Hg25 mi
Weather by CustomWeather, © 2015

See weather overviewHow to use our weather pages